Pardubice, Czech Republic

10:11 PM CET on December 12, 2017 (GMT +0100)
Pardubice

Weather History for LKPD - July, 2013

Change the Weather History Date:

Thursday, July 18, 2013

  Actual Average Record
Temperature  
Mean Temperature 68 °F -  
Max Temperature 82 °F - - ()
Min Temperature 55 °F - - ()
Cooling Degree Days 4    
Growing Degree Days 18 (Base 50)    
Moisture  
Dew Point 55 °F    
Average Humidity 63    
Maximum Humidity 94    
Minimum Humidity 32    
Precipitation  
Precipitation 0.00 in - - ()
Sea Level Pressure  
Sea Level Pressure 30.17 in    
Wind  
Wind Speed 1 mph ()    
Max Wind Speed 7 mph    
Max Gust Speed -    
T = Trace of Precipitation, MM = Missing Value Source: Averaged Metar Reports

Daily Weather History Graph

Daily Weather History Graph

Search for Another Location

Airport or City:

Trip Planner

Search our weather history database for the weather conditions in past years. The results will help you decide how hot, cold, wet, or windy it might be!

Date:

Astronomy

Jul. 18, 2013 Rise Set
Actual Time 5:08 AM CEST 8:57 PM CEST
Civil Twilight 4:26 AM CEST 9:39 PM CEST
Nautical Twilight 3:28 AM CEST 10:36 PM CEST
Astronomical Twilight 1:55 AM CEST 12:06 AM CEST
Moon 4:30 PM CEST (7/18) 12:53 AM CEST (7/18)
Length of Visible Light 17h 12m
Length of Day
15h 49m
Waxing Gibbous, 75% of the Moon is Illuminated
Jul 18
Waxing Gibbous
Jul 22
Full
Jul 29
Last Quarter
Aug 6
New
Aug 14
First Quarter

Hourly Weather History & Observations

Time (CEST) Temp. Heat Index Dew Point Humidity Pressure Visibility Wind Dir Wind Speed Gust Speed Precip Events Conditions
12:00 AM 60.8 °F - 57.2 °F 88% 30.18 in - Variable 1.2 mph - N/A   Clear
1:00 AM 60.8 °F - 55.4 °F 82% 30.18 in - Calm Calm - N/A   Clear
2:00 AM 59.0 °F - 55.4 °F 88% 30.18 in - Variable 1.2 mph - N/A   Clear
3:00 AM 57.2 °F - 53.6 °F 88% 30.18 in - SSW 1.2 mph - N/A   Clear
4:00 AM 55.4 °F - 53.6 °F 94% 30.18 in - Calm Calm - N/A   Clear
5:00 AM 55.4 °F - 53.6 °F 94% 30.18 in - Calm Calm - N/A   Clear
6:00 AM 55.4 °F - 53.6 °F 94% 30.21 in - Calm Calm - N/A   Clear
7:00 AM 59.0 °F - 55.4 °F 88% 30.21 in - Calm Calm - N/A   Clear
8:00 AM 64.4 °F - 57.2 °F 77% 30.21 in - Calm Calm - N/A   Clear
9:00 AM 69.8 °F - 59.0 °F 68% 30.21 in - Variable 1.2 mph - N/A   Clear
10:00 AM 73.4 °F - 59.0 °F 61% 30.21 in - Calm Calm - N/A   Clear
11:00 AM 77.0 °F - 55.4 °F 47% 30.21 in - Variable 4.6 mph - N/A   Clear
12:00 PM 78.8 °F - 55.4 °F 44% 30.18 in - Variable 3.5 mph - N/A   Clear
1:00 PM 80.6 °F 80.3 °F 53.6 °F 39% 30.18 in - Variable 1.2 mph - N/A   Clear
2:00 PM 80.6 °F 80.3 °F 53.6 °F 39% 30.18 in - Variable 2.3 mph - N/A   Clear
3:00 PM 82.4 °F - 51.8 °F 35% 30.15 in - Variable 3.5 mph - N/A   Clear
4:00 PM 82.4 °F - 50.0 °F 32% 30.15 in - East 4.6 mph - N/A   Clear
5:00 PM 82.4 °F - 51.8 °F 35% 30.15 in - NNW 3.5 mph - N/A   Clear
6:00 PM 82.4 °F 81.4 °F 53.6 °F 37% 30.12 in - NE 6.9 mph - N/A   Clear
7:00 PM 80.6 °F 80.5 °F 55.4 °F 42% 30.12 in - NE 4.6 mph - N/A   Clear
8:00 PM 78.8 °F - 55.4 °F 44% 30.12 in - NE 5.8 mph - N/A   Clear
9:00 PM 77.0 °F - 57.2 °F 50% 30.12 in - ENE 4.6 mph - N/A   Clear
10:00 PM 71.6 °F - 57.2 °F 60% 30.15 in - Variable 1.2 mph - N/A   Clear
11:00 PM 64.4 °F - 57.2 °F 77% 30.15 in - Variable 1.2 mph - N/A   Clear